Location: Chevoux
(46.3801°N, 4.9476°E)
Time: 08:11:55
(UTC+00:00)

X-37B - Pass Details

Date: 22 April 2021
Orbit: 386 x 389 km, 45.0° (Epoch: 08 May)

Event Time Altitude Azimuth Distance (km) Brightness Sun altitude
Exits shadow 02:37:25 58° 142° (SE) 457 0.8 -19.0°
Drops below altitude 10° 02:40:18 10° 90° (E) 1,415 4.1 -18.7°
Sets 02:42:23 0° 87° (E) 2,269 5.3 -18.4°
